Weather History for Phuket, Thailand

Change the Weather History Date:

Friday, December 24, 2010

  Actual Average Record
Temperature  
Mean Temperature 81 °F -  
Max Temperature 89 °F 89 °F 93 °F (1997)
Min Temperature 73 °F 74 °F 69 °F (1999)
Cooling Degree Days 16    
Growing Degree Days 31 (Base 50)    
Moisture  
Dew Point 71 °F    
Average Humidity 72    
Maximum Humidity 94    
Minimum Humidity 43    
Precipitation  
Precipitation 2.72 in 0.06 in - ()
Sea Level Pressure  
Sea Level Pressure 29.78 in    
Wind  
Wind Speed 5 mph ()    
Max Wind Speed 14 mph    
Max Gust Speed -    
Visibility 5.5 miles    
Events Rain    
Averages and records for this station are not official NWS values.
T = Trace of Precipitation, MM = Missing Value Source: Averaged Metar Reports

Daily Weather History Graph

Daily Weather History Graph

Search for Another Location

Airport:

Trip Planner

Search our weather history database for the weather conditions in past years. The results will help you decide how hot, cold, wet, or windy it might be!

Date:

Astronomy

Dec. 24, 2010 Rise Set
Actual Time 6:36 AM ICT 6:15 PM ICT
Civil Twilight 6:13 AM ICT 6:38 PM ICT
Nautical Twilight 5:47 AM ICT 7:04 PM ICT
Astronomical Twilight 5:21 AM ICT 7:30 PM ICT
Moon 9:13 PM ICT (12/24) 9:02 AM ICT (12/24)
Length of Visible Light 12h 24m
Length of Day
11h 39m
Waning Gibbous, 90% of the Moon is Illuminated
Dec 24
Waning Gibbous
Dec 28
Last Quarter
Jan 4
New
Jan 12
First Quarter
Jan 20
Full

Hourly Weather History & Observations

Time (ICT) Temp. Heat Index Dew Point Humidity Pressure Visibility Wind Dir Wind Speed Gust Speed Precip Events Conditions
12:00 AM 78.8 °F - 71.6 °F 78% 29.83 in 5.0 mi East 4.6 mph - N/A   Mostly Cloudy
12:30 AM 78.8 °F - 71.6 °F 78% 29.83 in 5.0 mi ESE 4.6 mph - N/A   Mostly Cloudy
1:00 AM 80 °F - 74 °F 76% 29.80 in 6 mi Calm Calm - -   Scattered Clouds
1:00 AM 78.8 °F - 69.8 °F 74% 29.83 in 5.0 mi East 6.9 mph - N/A   Mostly Cloudy
1:30 AM 78.8 °F - 69.8 °F 74% 29.80 in 5.0 mi ESE 5.8 mph - N/A   Mostly Cloudy
2:00 AM 77.0 °F - 71.6 °F 83% 29.80 in - North - - N/A   Mostly Cloudy
2:30 AM 77.0 °F - 71.6 °F 83% 29.80 in 5.0 mi ESE 3.5 mph - N/A   Mostly Cloudy
3:00 AM 77.0 °F - 71.6 °F 83% 29.77 in 5.0 mi ESE 3.5 mph - N/A   Mostly Cloudy
3:30 AM 78.8 °F - 71.6 °F 78% 29.77 in 5.0 mi ESE 5.8 mph - N/A   Mostly Cloudy
4:00 AM 78.8 °F - 69.8 °F 74% 29.77 in 5.0 mi East 10.4 mph - N/A   Mostly Cloudy
4:30 AM 78.8 °F - 69.8 °F 74% 29.77 in 5.0 mi Calm Calm - N/A   Mostly Cloudy
5:00 AM 77.0 °F - 71.6 °F 83% 29.77 in 5.0 mi Calm Calm - N/A   Mostly Cloudy
5:30 AM 75.2 °F - 71.6 °F 89% 29.77 in 5.0 mi Calm Calm - N/A   Mostly Cloudy
6:00 AM 75.2 °F - 71.6 °F 89% 29.80 in 5.0 mi Calm Calm - N/A   Mostly Cloudy
6:30 AM 75.2 °F - 71.6 °F 89% 29.80 in 5.0 mi Calm Calm - N/A   Mostly Cloudy
7:00 AM 76 °F - 74 °F 90% 29.77 in 6 mi Calm Calm - -   Scattered Clouds
7:00 AM 75.2 °F - 71.6 °F 89% 29.80 in 5.6 mi ESE 2.3 mph - N/A   Mostly Cloudy
7:30 AM 78.8 °F - 71.6 °F 78% 29.80 in 5.6 mi ENE 5.8 mph - N/A   Mostly Cloudy
8:00 AM 80.6 °F 84.6 °F 71.6 °F 74% 29.80 in 5.6 mi ENE 3.5 mph - N/A   Mostly Cloudy
8:30 AM 82.4 °F 87.2 °F 71.6 °F 70% 29.80 in 6.2 mi East 5.8 mph - N/A   Scattered Clouds
9:00 AM 82.4 °F 87.2 °F 71.6 °F 70% 29.80 in 6.2 mi East 9.2 mph - N/A   Scattered Clouds
9:30 AM 84.2 °F 88.4 °F 69.8 °F 62% 29.80 in 6.2 mi East 11.5 mph - N/A   Scattered Clouds
10:00 AM 84.2 °F 89.6 °F 71.6 °F 66% 29.80 in 6.2 mi East 13.8 mph - N/A   Scattered Clouds
10:30 AM 86.0 °F 90.4 °F 69.8 °F 58% 29.80 in 6.2 mi East 11.5 mph - N/A   Scattered Clouds
11:00 AM 86.0 °F 90.4 °F 69.8 °F 58% 29.80 in 6.2 mi East 11.5 mph - N/A   Scattered Clouds
11:30 AM 86.0 °F 90.4 °F 69.8 °F 58% 29.80 in 6.2 mi East 9.2 mph - N/A   Scattered Clouds
12:00 PM 87.8 °F 92.6 °F 69.8 °F 55% 29.77 in 6.2 mi ESE 11.5 mph - N/A   Scattered Clouds
12:30 PM 87.8 °F 91.4 °F 68.0 °F 52% 29.77 in 6.2 mi East 9.2 mph - N/A   Partly Cloudy
1:00 PM 88 °F - 69 °F 43% 29.77 in 6 mi ENE 6.9 mph - -   Scattered Clouds
1:00 PM 87.8 °F 90.4 °F 66.2 °F 49% 29.77 in 6.2 mi East 9.2 mph - N/A   Partly Cloudy
1:30 PM 87.8 °F 91.4 °F 68.0 °F 52% 29.74 in 6.2 mi East 9.2 mph - N/A   Partly Cloudy
2:00 PM 89.6 °F 93.4 °F 68.0 °F 49% 29.71 in 6.2 mi East 13.8 mph - N/A   Partly Cloudy
2:30 PM 89.6 °F 94.7 °F 69.8 °F 52% 29.71 in 6.2 mi East 13.8 mph - N/A   Partly Cloudy
3:00 PM 89.6 °F 98.2 °F 73.4 °F 59% 29.71 in 6.2 mi East 8.1 mph - N/A   Partly Cloudy
3:30 PM 87.8 °F 95.6 °F 73.4 °F 62% 29.71 in 6.2 mi WNW 9.2 mph - N/A   Partly Cloudy
4:00 PM 86.0 °F 91.8 °F 71.6 °F 62% 29.71 in 6.2 mi WNW 11.5 mph - N/A   Partly Cloudy
4:30 PM 86.0 °F 91.8 °F 71.6 °F 62% 29.71 in 6.2 mi WNW 13.8 mph - N/A   Partly Cloudy
5:00 PM 84.2 °F 89.6 °F 71.6 °F 66% 29.74 in 6.2 mi WNW 9.2 mph - N/A   Scattered Clouds
5:30 PM 84.2 °F 89.6 °F 71.6 °F 66% 29.74 in 6.2 mi WNW 9.2 mph - N/A   Scattered Clouds
6:00 PM 82.4 °F 87.2 °F 71.6 °F 70% 29.74 in 6.2 mi West 9.2 mph - N/A   Scattered Clouds
6:30 PM 82.4 °F 87.2 °F 71.6 °F 70% 29.74 in 6.2 mi WNW 5.8 mph - N/A   Scattered Clouds
7:00 PM 84 °F - 72 °F 60% 29.73 in 6 mi Calm Calm - -   Scattered Clouds
7:00 PM 82.4 °F 87.2 °F 71.6 °F 70% 29.77 in 6.2 mi WNW 6.9 mph - N/A   Scattered Clouds
7:30 PM 80.6 °F 84.6 °F 71.6 °F 74% 29.77 in 6.2 mi WNW 6.9 mph - N/A   Scattered Clouds
8:00 PM 82.4 °F 87.2 °F 71.6 °F 70% 29.80 in 6.2 mi WNW 9.2 mph - N/A   Scattered Clouds
8:30 PM 82.4 °F 87.2 °F 71.6 °F 70% 29.80 in 6.2 mi Variable 2.3 mph - N/A   Mostly Cloudy
9:00 PM 82.4 °F 88.2 °F 73.4 °F 74% 29.80 in 5.0 mi West 8.1 mph - N/A   Mostly Cloudy
9:30 PM 77.0 °F - 71.6 °F 83% 29.83 in 4.3 mi ESE 5.8 mph - N/A Rain Light Rain
10:00 PM 75.2 °F - 73.4 °F 94% 29.83 in 0.6 mi East 13.8 mph - N/A Rain Rain
10:30 PM 73.4 °F - 71.6 °F 94% 29.83 in 1.9 mi Variable 1.2 mph - N/A Rain Rain
11:00 PM 73.4 °F - 71.6 °F 94% 29.83 in 4.3 mi Calm Calm - N/A Rain Rain
11:30 PM 73.4 °F - 71.6 °F 94% 29.80 in 5.0 mi Calm Calm - N/A   Mostly Cloudy